This is the latest recevied weather packets stored in our database for station/object DJ2DS-13. If no packets are shown the sender has not sent any weather packets the latest 10 day(s).
| Time | Temp. | Humidity | Pressure | Rain* | Wind** | Luminosity | Snow |
|---|---|---|---|---|---|---|---|
| 1778131482 | 6.67° C | 92% | 1013 hPa | 0 mm | - | 69 W/m² | - |
| 1778131183 | 6.11° C | 92% | 1013 hPa | 0 mm | - | 62 W/m² | - |
| 1778130883 | 5.56° C | 92% | 1013 hPa | 0 mm | - | 72 W/m² | - |
| 1778130583 | 5° C | 92% | 1013 hPa | 0 mm | - | 51 W/m² | - |
| 1778130283 | 5° C | 92% | 1013 hPa | 0 mm | - | 53 W/m² | - |
| 1778129982 | 4.44° C | 92% | 1012.8 hPa | 0 mm | - | 55 W/m² | - |
| 1778129681 | 4.44° C | 91% | 1012.7 hPa | 0 mm | - | 48 W/m² | - |
| 1778129382 | 3.89° C | 91% | 1012.7 hPa | 0 mm | - | 48 W/m² | - |
| 1778129080 | 3.89° C | 91% | 1012.7 hPa | 0 mm | - | 35 W/m² | - |
| 1778128780 | 3.89° C | 91% | 1012.6 hPa | 0 mm | - | 26 W/m² | - |
| 1778128478 | 3.89° C | 91% | 1012.5 hPa | 0 mm | - | 19 W/m² | - |
| 1778128179 | 3.33° C | 91% | 1012.5 hPa | 0 mm | - | 19 W/m² | - |
| 1778127879 | 3.89° C | 91% | 1012.4 hPa | 0 mm | - | 18 W/m² | - |
| 1778127580 | 3.89° C | 91% | 1012.4 hPa | 0 mm | - | 16 W/m² | - |
| 1778127280 | 3.89° C | 91% | 1012.3 hPa | 0 mm | - | 14 W/m² | - |
| 1778126979 | 3.89° C | 91% | 1012.3 hPa | 0 mm | - | 12 W/m² | - |
| 1778126679 | 3.89° C | 91% | 1012.2 hPa | 0 mm | - | 11 W/m² | - |
| 1778126378 | 4.44° C | 91% | 1012.2 hPa | 0 mm | - | 9 W/m² | - |
| 1778126077 | 4.44° C | 91% | 1012.2 hPa | 0 mm | - | 7 W/m² | - |
| 1778125779 | 4.44° C | 91% | 1012.1 hPa | 0 mm | - | 5 W/m² | - |
| 1778125477 | 4.44° C | 91% | 1012.1 hPa | 0 mm | - | 5 W/m² | - |
| 1778125175 | 4.44° C | 91% | 1012.1 hPa | 0 mm | - | 0 W/m² | - |
| 1778124875 | 5° C | 91% | 1012.1 hPa | 0 mm | - | 0 W/m² | - |
| 1778124574 | 5° C | 91% | 1012 hPa | 0 mm | - | 0 W/m² | - |
| 1778124277 | 5° C | 91% | 1012 hPa | 0 mm | - | 0 W/m² | - |
* Rain latest hour (hover to see other rain measurements)
** Current wind speed in m/s (hover to see current wind gust speed)